CW5306 Weather Reports


time (UTC)temp
F
wind
direction
speed
knots
gust
knots
rain 1hr
in
rain 24hr
in
rain mn
in
humidity
%
barometer
mb
20260904115728 76 80 11.3 17.4 0.00 0.06 0.00 82 1013.2
20260904115228 77 156 5.2 18.2 0.00 0.06 0.00 80 1013.0
20260904114728 77 110 7.8 18.2 0.00 0.06 0.00 80 1013.2
20260904114227 77 68 10.4 16.5 0.00 0.06 0.00 79 1013.2
20260904113727 77 76 7.0 16.5 0.00 0.06 0.00 80 1013.3
20260904113227 76 132 7.8 16.5 0.00 0.06 0.00 81 1013.1
20260904112727 76 66 11.3 16.5 0.00 0.06 0.00 81 1013.2
20260904112228 76 121 7.8 14.8 0.00 0.06 0.00 81 1013.2
20260904111728 76 45 10.4 13.9 0.00 0.06 0.00 81 1013.3
20260904111228 76 96 7.8 13.9 0.00 0.06 0.00 81 1013.4
20260904110715 76 128 7.8 17.4 0.00 0.06 0.00 82 1013.4
20260904110215 75 119 5.2 21.7 0.00 0.06 0.00 82 1013.4
20260904105715 76 156 8.7 21.7 0.00 0.06 0.00 82 1013.4
20260904105216 76 85 10.4 22.6 0.00 0.06 0.00 83 1013.6
20260904104715 77 87 8.7 22.6 0.00 0.06 0.00 83 1013.6
20260904104216 77 90 7.0 20.0 0.00 0.06 0.00 79 1013.6
20260904103715 77 58 7.8 20.0 0.00 0.06 0.00 80 1013.5
20260904103203 77 74 9.6 20.9 0.00 0.06 0.00 78 1013.8
20260904102703 77 156 5.2 20.9 0.00 0.06 0.00 78 1013.7
20260904102203 77 91 4.3 17.4 0.00 0.06 0.00 77 1013.9
20260904101934 77 88 7.8 16.5 0.00 0.06 0.00 78 1014.0
20260904101435 77 86 9.6 16.5 0.00 0.06 0.00 78 1013.7
20260904100703 77 99 11.3 16.5 0.00 0.06 0.00 78 1013.7
20260904100203 77 109 7.0 16.5 0.00 0.06 0.00 79 1014.1
20260904095703 77 119 7.0 20.0 0.00 0.06 0.06 79 1013.9
20260904095151 77 90 6.1 20.0 0.00 0.06 0.06 78 1014.1
20260904094652 77 101 7.8 16.5 0.00 0.06 0.06 78 1014.2
20260904094153 77 104 9.6 20.0 0.00 0.06 0.06 79 1014.1
20260904093658 77 79 7.0 14.8 0.00 0.06 0.06 79 1014.2
20260904093652 77 69 8.7 20.0 0.00 0.06 0.06 79 1014.1
20260904092924 77 70 9.6 20.0 0.00 0.06 0.06 78 1014.3
20260904092152 77 89 11.3 20.0 0.00 0.06 0.06 79 1014.2
20260904091639 77 87 7.0 17.4 0.00 0.06 0.06 81 1014.2
20260904091139 77 89 11.3 16.5 0.00 0.06 0.06 80 1014.4
20260904090641 77 119 5.2 16.5 0.00 0.06 0.06 80 1014.3
20260904090140 77 91 6.1 18.2 0.00 0.06 0.06 80 1014.4
20260904085641 77 80 12.2 20.9 0.00 0.06 0.06 79 1014.5
20260904085140 77 132 7.0 20.9 0.00 0.06 0.06 79 1014.2
20260904084911 77 85 7.8 18.2 0.01 0.06 0.06 79 1014.5
20260904084127 77 94 9.6 20.9 0.04 0.06 0.06 80 1014.5
20260904083627 77 72 7.8 18.2 0.04 0.06 0.06 79 1014.4
20260904083127 77 74 8.7 18.2 0.04 0.06 0.06 80 1014.7
20260904082629 77 76 7.0 17.4 0.04 0.06 0.06 79 1014.8
20260904082128 76 101 11.3 17.4 0.04 0.06 0.06 80 1014.6
20260904081627 76 99 4.3 16.5 0.04 0.06 0.06 82 1014.9
20260904081129 76 79 11.3 16.5 0.04 0.06 0.06 82 1015.1
20260904080629 76 92 5.2 17.4 0.04 0.05 0.05 84 1014.8
20260904080358 76 116 6.1 17.4 0.04 0.05 0.05 85 1014.9
20260904075628 76 88 3.5 16.5 0.04 0.05 0.05 85 1015.0
20260904075128 76 89 4.3 20.0 0.04 0.05 0.05 84 1015.0
20260904074627 77 95 10.4 20.0 0.04 0.05 0.05 83 1015.1
20260904074127 78 47 8.7 16.5 0.00 0.01 0.01 80 1014.9
20260904073628 78 105 7.0 16.5 0.00 0.01 0.01 79 1014.9
20260904073128 78 100 5.2 16.5 0.00 0.01 0.01 78 1014.7
20260904072627 78 73 5.2 16.5 0.00 0.01 0.01 77 1014.8
20260904072129 78 79 5.2 13.9 0.00 0.01 0.01 79 1014.9
20260904071627 78 90 8.7 13.9 0.00 0.01 0.01 79 1014.7
20260904071128 78 186 4.3 18.2 0.00 0.01 0.01 80 1014.4
20260904070628 78 39 7.8 18.2 0.00 0.01 0.01 79 1014.4
20260904070127 78 96 10.4 16.5 0.00 0.01 0.01 77 1014.4
20260904065629 78 121 6.1 16.5 0.00 0.01 0.01 76 1014.3
20260904065128 78 46 5.2 14.8 0.00 0.01 0.01 76 1014.2
20260904064627 78 96 7.0 18.2 0.00 0.01 0.01 76 1014.2
20260904064130 78 112 10.4 17.4 0.00 0.01 0.01 76 1014.1
20260904063628 78 87 8.7 16.5 0.00 0.01 0.01 76 1014.2
20260904063128 78 92 9.6 16.5 0.00 0.01 0.01 76 1014.1
20260904062859 78 111 8.7 17.4 0.00 0.01 0.01 75 1014.2
20260904062359 78 101 8.7 17.4 0.00 0.01 0.01 76 1014.3
20260904061900 79 126 7.8 16.5 0.00 0.01 0.01 77 1014.1
20260904061736 78 103 7.8 16.5 0.00 0.01 0.01 76 1014.4
20260904060627 78 90 7.8 18.2 0.00 0.01 0.01 76 1014.4
20260904060127 78 70 9.6 18.2 0.00 0.01 0.01 76 1014.1
20260904055858 79 100 6.1 14.8 0.00 0.01 0.01 77 1014.0
20260904055116 79 120 8.7 18.2 0.00 0.01 0.01 77 1014.0
20260904054846 78 63 7.8 18.2 0.00 0.01 0.01 77 1014.1
20260904054115 79 41 5.2 17.4 0.00 0.01 0.01 77 1013.8
20260904053616 79 123 7.8 17.4 0.00 0.01 0.01 78 1013.8
20260904053117 79 107 7.8 18.2 0.00 0.01 0.01 77 1013.7
20260904052615 79 96 5.2 18.2 0.00 0.01 0.01 77 1013.9
20260904052116 79 75 8.7 17.4 0.00 0.01 0.01 77 1013.7
20260904051615 79 84 7.8 17.4 0.00 0.01 0.01 75 1013.6
20260904051347 79 58 8.7 18.2 0.00 0.01 0.01 75 1013.4
20260904050616 79 128 7.8 18.2 0.00 0.01 0.01 76 1013.4
20260904050116 79 126 12.2 16.5 0.00 0.01 0.01 75 1013.7
20260904045846 79 84 7.8 18.2 0.00 0.01 0.01 77 1013.5
20260904045336 79 99 4.3 18.2 0.00 0.01 0.01 76 1013.4
20260904044834 79 49 9.6 16.5 0.00 0.01 0.01 76 1013.4
20260904044104 79 99 7.0 16.5 0.00 0.01 0.01 76 1013.2
20260904043835 79 71 8.7 18.2 0.00 0.01 0.01 76 1013.5
20260904043105 78 105 7.0 18.2 0.00 0.01 0.01 77 1013.3
20260904042604 78 72 8.7 17.4 0.00 0.01 0.01 79 1013.2
20260904042104 78 58 7.0 16.5 0.00 0.01 0.01 80 1013.1
20260904041557 79 68 6.1 18.2 0.00 0.01 0.01 78 1013.0
20260904041552 79 111 11.3 16.5 0.00 0.01 0.01 79 1013.2
20260904040552 79 26 9.6 18.2 0.00 0.01 0.01 78 1013.1
20260904040052 79 54 11.3 18.2 0.00 0.01 0.01 78 1013.1
20260904035551 79 54 7.8 16.5 0.00 0.01 0.01 78 1012.9
20260904035051 79 102 11.3 20.9 0.00 0.01 0.01 77 1012.8
20260904034552 79 116 13.9 20.9 0.00 0.01 0.01 76 1012.9
20260904034040 79 95 9.6 17.4 0.00 0.01 0.01 75 1012.8
20260904033540 79 119 4.3 20.0 0.00 0.01 0.01 76 1012.6
20260904033040 78 119 13.9 20.0 0.00 0.01 0.01 77 1012.6
20260904032541 78 100 7.8 20.9 0.00 0.01 0.01 79 1012.7
20260904032039 79 39 8.7 20.9 0.00 0.01 0.01 80 1013.0
20260904031540 79 103 11.3 17.4 0.00 0.01 0.01 79 1012.9
20260904031041 78 102 10.4 20.9 0.00 0.01 0.01 79 1013.1
20260904030758 78 92 8.7 20.9 0.00 0.01 0.01 79 1012.8
20260904030027 78 76 10.4 17.4 0.00 0.01 0.01 80 1012.9
20260904025528 78 97 7.0 20.0 0.00 0.01 0.01 80 1012.9
20260904025028 78 81 11.3 20.0 0.00 0.01 0.01 79 1013.0
20260904024528 78 79 7.8 20.9 0.00 0.01 0.01 80 1013.2
20260904024259 78 115 8.7 20.9 0.00 0.01 0.01 80 1012.6
20260904023527 78 108 7.8 20.0 0.00 0.01 0.01 82 1012.9
20260904023027 77 98 3.5 14.8 0.00 0.01 0.01 85 1013.0
20260904022528 77 125 5.2 9.6 0.00 0.01 0.01 87 1013.2
20260904022028 76 136 5.2 9.6 0.00 0.01 0.01 88 1013.3
20260904021528 76 103 3.5 16.5 0.00 0.01 0.01 88 1013.5
20260904021028 76 164 5.2 16.5 0.00 0.01 0.01 88 1013.4
20260904020759 76 102 5.2 13.9 0.00 0.01 0.01 88 1013.5
20260904020027 76 128 8.7 17.4 0.00 0.01 0.01 88 1013.5
20260904015541 77 83 8.7 18.2 0.00 0.01 0.01 86 1013.7
20260904015535 76 118 7.0 17.4 0.00 0.01 0.01 87 1013.7
20260904015529 76 93 5.2 17.4 0.00 0.01 0.01 87 1013.8
20260903182004 79 146 11.3 20.9 0.00 0.06 0.01 81 1015.5
20260903181504 78 81 11.3 18.2 0.00 0.11 0.01 80 1015.6
20260903181004 78 88 8.7 18.2 0.00 0.15 0.01 81 1015.4
20260903180736 78 59 7.8 20.0 0.00 0.20 0.01 81 1015.4
20260903175951 78 92 14.8 20.0 0.00 0.26 0.01 80 1015.6
20260903175451 78 92 7.0 17.4 0.00 0.32 0.01 81 1015.5
20260903175222 77 87 8.7 17.4 0.00 0.41 0.01 82 1015.5
20260903174452 77 76 8.7 20.9 0.00 0.44 0.01 85 1015.5
20260903173952 76 68 6.1 20.9 0.00 0.45 0.01 85 1015.4
20260903173723 76 91 13.0 18.2 0.00 0.46 0.01 85 1015.7
20260903172951 77 98 9.6 18.2 0.00 0.47 0.01 85 1015.5
20260903172439 78 63 9.6 18.2 0.00 0.47 0.01 84 1015.5
20260903171939 77 77 7.8 16.5 0.00 0.47 0.01 83 1015.3
20260903171440 76 96 2.6 13.9 0.00 0.47 0.01 84 1015.4
20260903170940 76 135 4.3 13.9 0.01 0.47 0.01 85 1015.2
20260903170711 76 64 7.0 20.0 0.01 0.47 0.01 86 1015.3
20260903165940 76 128 10.4 20.0 0.01 0.47 0.01 86 1015.3
20260903165440 76 132 8.7 18.2 0.01 0.47 0.01 85 1015.0
20260903164928 76 112 3.5 17.4 0.01 0.47 0.01 85 1014.9
20260903164427 76 110 7.8 17.4 0.01 0.47 0.01 86 1014.9
20260903163927 75 116 11.3 14.8 0.01 0.47 0.01 87 1015.1
20260903163427 75 97 4.3 14.8 0.01 0.47 0.01 88 1014.9
20260903163159 75 93 6.1 13.0 0.01 0.47 0.01 88 1015.3
20260903162428 75 99 3.5 13.0 0.01 0.47 0.01 87 1015.2
20260903161928 76 126 5.2 14.8 0.01 0.47 0.01 86 1015.1
20260903161658 76 89 9.6 16.5 0.00 0.46 0.01 84 1015.1
20260903160927 77 115 4.3 16.5 0.00 0.46 0.00 83 1015.0
20260903160428 77 92 6.1 16.5 0.00 0.46 0.00 82 1014.9
20260903155927 77 124 10.4 14.8 0.00 0.46 0.00 82 1015.0
20260903155427 77 49 8.7 16.5 0.00 0.46 0.00 82 1015.0
20260903154928 77 89 11.3 16.5 0.00 0.46 0.00 81 1014.7
20260903154428 77 50 7.0 16.5 0.00 0.46 0.00 81 1014.5
20260903153928 77 135 8.7 16.5 0.00 0.46 0.00 82 1014.6
20260903153658 76 125 6.1 13.9 0.00 0.46 0.00 84 1014.8
20260903152928 76 74 7.8 18.2 0.00 0.47 0.00 85 1014.9
20260903152428 76 50 7.0 18.2 0.00 0.49 0.00 86 1015.0
20260903151928 76 86 9.6 20.9 0.00 0.50 0.00 86 1014.8
20260903151659 77 57 9.6 21.7 0.00 0.50 0.00 86 1014.9
20260903150929 77 69 12.2 21.7 0.00 0.50 0.00 84 1014.9
20260903150428 77 56 9.6 20.0 0.00 0.50 0.00 85 1014.6
20260903145927 76 68 8.7 17.4 0.00 0.50 0.00 85 1014.7
20260903145427 76 37 9.6 13.9 0.00 0.50 0.00 85 1014.7
20260903144928 76 77 6.1 21.7 0.00 0.50 0.00 84 1014.6
20260903144428 76 114 6.1 26.9 0.00 0.50 0.00 82 1015.0
20260903143928 77 76 9.6 26.9 0.00 0.49 0.00 82 1014.6
20260903143427 78 90 10.4 17.4 0.00 0.50 0.00 80 1014.8
20260903142928 78 70 9.6 20.0 0.00 0.50 0.00 80 1014.6
20260903142428 78 54 9.6 20.0 0.00 0.50 0.00 80 1014.5
20260903141929 78 94 7.8 16.5 0.00 0.50 0.00 81 1014.6
20260903141428 78 45 6.1 16.5 0.00 0.50 0.00 80 1014.4
20260903141201 78 71 5.2 16.5 0.00 0.51 0.00 81 1014.6
20260903140430 78 96 10.4 17.4 0.00 0.51 0.00 82 1014.5
20260903135928 78 85 11.3 17.4 0.00 0.51 0.00 82 1014.6
20260903135427 78 81 7.8 20.0 0.00 0.51 0.00 82 1014.4
20260903134929 78 59 13.0 17.4 0.00 0.51 0.00 82 1014.6
20260903134429 78 68 6.1 14.8 0.00 0.51 0.00 82 1014.6
20260903133928 78 93 7.0 20.0 0.00 0.51 0.00 82 1014.6
20260903133428 78 89 7.0 20.0 0.00 0.51 0.00 81 1014.4
20260903133158 78 126 9.6 17.4 0.00 0.51 0.00 80 1014.7
20260903132429 78 80 9.6 20.0 0.00 0.51 0.00 80 1014.6
20260903131928 78 85 11.3 20.0 0.00 0.51 0.00 80 1014.5
20260903131427 78 101 6.1 17.4 0.00 0.51 0.00 82 1014.4
20260903130927 78 87 10.4 17.4 0.00 0.51 0.00 81 1014.6
20260903130428 78 114 10.4 22.6 0.00 0.51 0.00 81 1014.7
20260903125928 78 66 6.1 22.6 0.00 0.51 0.00 82 1014.6
20260903125428 78 115 3.5 22.6 0.00 0.51 0.00 83 1014.5
20260903125159 78 126 8.7 22.6 0.00 0.51 0.00 82 1014.5
20260903124428 78 127 3.5 17.4 0.00 0.51 0.00 82 1014.6
20260903123929 78 92 10.4 17.4 0.00 0.51 0.00 82 1014.3
20260903123428 78 80 9.6 14.8 0.00 0.51 0.00 83 1014.4
20260903122927 78 93 7.0 17.4 0.00 0.51 0.00 83 1014.7
20260903122658 78 85 9.6 17.4 0.00 0.51 0.00 82 1014.5
20260903121927 78 105 10.4 16.5 0.00 0.51 0.00 80 1014.7
20260903121427 78 114 7.0 20.0 0.00 0.51 0.00 80 1014.7
20260903121158 78 95 7.0 20.0 0.00 0.51 0.00 81 1014.8
20260903120416 78 96 7.0 18.2 0.00 0.51 0.00 82 1014.9